Location: Anaheim
(33.8350°N, 117.9140°W)
Time: 03:22:36
(UTC-08:00)

Amateur Radio Satellites - All Passes

Search period start: 21 December 2014 02:52
Search period end: 22 December 2014 02:52
Location: Anaheim, 33.8350°N, 117.9140°W

Satellite Date Start Highest point End Downlink Frequencies (MHz)
Time Altitude Azimuth
AIST 1 21 Dec 02:52:26 02:56:15 31° 79° (E) 03:00:02
MOZHAYETS 4 21 Dec 03:16:52 03:20:32 24° 70° (ENE) 03:24:13
VERMONT LUNAR 21 Dec 03:17:33 03:20:56 43° 343° (NNW) 03:24:20 437.305
HORYU 2 21 Dec 03:29:40 03:34:08 60° 285° (WNW) 03:38:33 437.375
PHONESAT 2.4 21 Dec 03:33:37 03:37:09 49° 341° (NNW) 03:40:41 2401.200-2431.200
Gurwin Techsat 1B 21 Dec 04:00:28 04:03:16 15° 296° (WNW) 04:06:04 435.225
AIST 1 21 Dec 04:31:05 04:33:35 15° 273° (W) 04:36:04
AO-7 21 Dec 04:41:02 04:49:19 68° 290° (WNW) 04:57:33 29.400- 29.500
GONETS M04 21 Dec 04:42:23 04:50:43 49° 89° (E) 04:59:03
CUBESAT XI-V 21 Dec 04:43:04 04:45:19 14° 66° (ENE) 04:47:33 437.345
MOZHAYETS 4 21 Dec 04:53:37 04:57:35 28° 264° (W) 05:01:34
VERMONT LUNAR 21 Dec 04:56:42 04:59:44 26° 360° (N) 05:02:46 437.305
STRAND 1 21 Dec 05:05:12 05:09:08 23° 68° (ENE) 05:13:05 437.568
JAS-2 21 Dec 05:05:33 05:11:05 86° 283° (WNW) 05:16:15 435.910
PHONESAT 2.4 21 Dec 05:13:08 05:16:17 27° 358° (N) 05:19:27 2401.200-2431.200
Cubesat XI-IV 21 Dec 05:21:07 05:25:29 25° 96° (E) 05:29:49 437.490
PRISM 21 Dec 05:24:23 05:28:37 87° 256° (WSW) 05:32:52 437.425
SO-50 21 Dec 05:43:13 05:48:07 68° 60° (ENE) 05:52:59 436.795
CUTE-I 21 Dec 05:53:33 05:58:45 54° 101° (E) 06:03:56 437.470
CUBESAT XI-V 21 Dec 06:17:43 06:22:16 51° 260° (W) 06:26:49 437.345
VERMONT LUNAR 21 Dec 06:35:09 06:38:33 43° 17° (NNE) 06:41:56 437.305
AO-7 21 Dec 06:37:33 06:40:32 12° 309° (NW) 06:43:31 29.400- 29.500
GONETS M04 21 Dec 06:40:04 06:47:40 32° 286° (WNW) 06:55:19
STRAND 1 21 Dec 06:43:27 06:48:05 35° 262° (W) 06:52:43 437.568
PHONESAT 2.4 21 Dec 06:52:03 06:55:30 40° 15° (NNE) 06:58:57 2401.200-2431.200
Cubesat XI-IV 21 Dec 07:00:50 07:05:31 33° 290° (WNW) 07:10:13 437.490
MaSat-1 21 Dec 07:21:41 07:22:32 11° 107° (ESE) 07:23:21 437.345
SO-50 21 Dec 07:26:32 07:28:04 11° 254° (WSW) 07:29:36 436.795
HO-68 21 Dec 07:29:50 07:34:27 18° 94° (E) 07:39:03 435.675
CUTE-I 21 Dec 07:35:08 07:38:19 16° 295° (WNW) 07:41:32 437.470
GOMX 1 21 Dec 07:42:52 07:45:05 13° 93° (E) 07:47:21 467.674
CANX-2 21 Dec 08:03:43 08:07:22 26° 96° (E) 08:10:59 2200.000
DOVE 4 21 Dec 08:04:13 08:07:17 16° 94° (E) 08:10:26 437.250
VERMONT LUNAR 21 Dec 08:13:32 08:16:51 40° 212° (SSW) 08:20:10 437.305
CUSAT 1 21 Dec 08:14:55 08:16:44 13° 82° (E) 08:18:47 437.405
COMPASS 1 21 Dec 08:23:21 08:27:03 29° 97° (E) 08:30:43 437.405
CINEMA 3 21 Dec 08:24:30 08:27:19 15° 94° (E) 08:30:11 145.822/145.860
SEEDS 21 Dec 08:29:38 08:33:43 42° 99° (E) 08:37:45 437.485
PHONESAT 2.4 21 Dec 08:30:44 08:34:14 48° 211° (SSW) 08:37:44 2401.200-2431.200
CUTE 1.7 + AOD 2 21 Dec 08:33:57 08:38:12 57° 100° (E) 08:42:25 437.475
DELFI C3 21 Dec 08:36:51 08:38:45 13° 93° (E) 08:40:39 145.870
UWE-3 21 Dec 08:41:24 08:42:13 10° 92° (E) 08:43:03 435.000/436.395/437.385
TIGRISAT 21 Dec 08:49:39 08:52:21 16° 67° (ENE) 08:55:05 435.000
DX 1 21 Dec 08:52:40 08:55:46 19° 96° (E) 08:58:51 434.975-435.025
BRITE-PL 21 Dec 08:55:46 09:00:33 72° 284° (WNW) 09:05:45 437.365/2234.400
YUBILEINY 21 Dec 09:04:50 09:09:15 15° 66° (ENE) 09:13:39 435.215
BUGSAT 1 21 Dec 09:06:13 09:07:33 11° 67° (ENE) 09:08:54 437.445
DANDE 21 Dec 09:08:30 09:11:41 54° 94° (E) 09:15:52 436.750
DUCHIFAT 1 21 Dec 09:09:30 09:12:11 17° 68° (ENE) 09:14:53 145.980
Oscar 11 21 Dec 09:12:56 09:17:09 47° 99° (E) 09:21:20 145.826/435.025
RS-15 21 Dec 09:14:20 09:19:58 16° 99° (E) 09:25:33 29.354- 29.394
HO-68 21 Dec 09:15:31 09:22:37 68° 288° (WNW) 09:29:40 435.675
UNISAT 6 21 Dec 09:17:47 09:21:44 35° 72° (ENE) 09:25:46 437.425
GOMX 1 21 Dec 09:18:35 09:23:21 58° 285° (WNW) 09:28:26 467.674
UKube-1 21 Dec 09:22:03 09:26:09 41° 99° (E) 09:30:14 .
AAUSAT CUBESAT 2 21 Dec 09:22:38 09:26:48 57° 285° (WNW) 09:30:55 437.432
QB50P2 21 Dec 09:22:48 09:26:14 25° 71° (ENE) 09:29:41 145.880/145.840
POLYITAN 1 21 Dec 09:31:36 09:35:19 31° 72° (ENE) 09:39:03 437.675
NANOSAT C BR1 21 Dec 09:33:04 09:36:49 32° 72° (ENE) 09:40:34 145.865
CUBEBUG 2 21 Dec 09:37:56 09:42:34 60° 101° (E) 09:47:16 437.445
CANX-2 21 Dec 09:39:51 09:43:07 21° 290° (WNW) 09:46:21 2200.000
DOVE 4 21 Dec 09:40:30 09:45:08 46° 286° (WNW) 09:50:00 437.250
ZACube-1 21 Dec 09:45:11 09:49:38 51° 100° (E) 09:54:06 437.345
QB50P1 21 Dec 09:47:17 09:51:19 49° 74° (ENE) 09:55:23 145.935-145.965
ANTELSAT 21 Dec 09:49:19 09:53:40 86° 77° (ENE) 09:58:08 437.575/2403.000
VELOX 1 21 Dec 09:50:17 09:54:05 28° 97° (E) 09:57:52 145.980
CUSAT 1 21 Dec 09:56:14 09:59:15 26° 289° (WNW) 10:03:02 437.405
JUGNU 21 Dec 09:57:08 09:58:53 11° 164° (SSE) 10:00:38 437.505
ESTCUBE 1 21 Dec 09:57:27 09:59:18 12° 93° (E) 10:01:07 437.505/2401.250
COMPASS 1 21 Dec 09:59:32 10:02:32 19° 291° (WNW) 10:05:32 437.405
CINEMA 3 21 Dec 10:00:02 10:04:38 47° 286° (WNW) 10:09:22 145.822/145.860
SEEDS 21 Dec 10:06:59 10:09:08 14° 293° (WNW) 10:11:16 437.485
DELFI C3 21 Dec 10:10:19 10:14:09 38° 287° (WNW) 10:17:56 145.870
50 SAT 21 Dec 10:11:09 10:15:07 43° 99° (E) 10:19:05 437.505
FUNcube-1 21 Dec 10:11:36 10:16:10 79° 283° (WNW) 10:20:45 145.935
CUTE 1.7 + AOD 2 21 Dec 10:12:50 10:13:34 10° 294° (WNW) 10:14:18 437.475
UWE-3 21 Dec 10:14:28 10:19:02 61° 285° (WNW) 10:23:39 435.000/436.395/437.385
O/OREOS (USA 219) 21 Dec 10:14:41 10:19:11 66° 70° (ENE) 10:23:41 437.305
POPSAT HIP 1 21 Dec 10:15:56 10:20:07 72° 258° (WSW) 10:24:20 437.405
TIGRISAT 21 Dec 10:24:47 10:28:45 36° 262° (W) 10:32:50 435.000
DX 1 21 Dec 10:28:13 10:31:59 30° 289° (WNW) 10:35:46 434.975-435.025
AISAT 21 Dec 10:33:26 10:37:54 85° 284° (WNW) 10:42:21 437.250
CUBEBUG 1 21 Dec 10:36:41 10:40:37 34° 98° (E) 10:44:34 437.445
BUGSAT 1 21 Dec 10:38:41 10:42:37 45° 260° (W) 10:46:33 437.445
HUMSAT D 21 Dec 10:39:37 10:43:55 64° 284° (WNW) 10:48:12 437.325/437.525
DUCHIFAT 1 21 Dec 10:44:01 10:47:46 32° 262° (W) 10:51:32 145.980
Oscar 11 21 Dec 10:50:57 10:52:51 13° 293° (WNW) 10:54:46 145.826/435.025
UNISAT 6 21 Dec 10:55:54 10:58:37 16° 267° (W) 11:01:22 437.425
YUBILEINY 21 Dec 10:58:28 11:07:12 88° 85° (E) 11:15:55 435.215
QB50P2 21 Dec 10:58:51 11:02:04 21° 264° (W) 11:05:18 145.880/145.840
UKube-1 21 Dec 10:59:37 11:01:55 14° 293° (WNW) 11:04:14 .
HO-68 21 Dec 11:08:15 11:09:00 10° 305° (NW) 11:09:45 435.675
POLYITAN 1 21 Dec 11:08:36 11:11:17 17° 266° (W) 11:13:59 437.675
NANOSAT C BR1 21 Dec 11:10:07 11:12:44 16° 266° (W) 11:15:21 145.865
CUBEBUG 2 21 Dec 11:17:00 11:18:43 12° 294° (WNW) 11:20:28 437.445
RS-15 21 Dec 11:19:36 11:30:36 85° 116° (ESE) 11:41:34 29.354- 29.394
ZACube-1 21 Dec 11:23:24 11:25:32 13° 293° (WNW) 11:27:41 437.345
QB50P1 21 Dec 11:26:40 11:27:26 10° 268° (W) 11:28:12 145.935-145.965
VELOX 1 21 Dec 11:27:08 11:30:28 21° 291° (WNW) 11:33:48 145.980
ESTCUBE 1 21 Dec 11:32:04 11:36:23 48° 286° (WNW) 11:40:40 437.505/2401.250
ISS 21 Dec 11:32:25 11:34:43 18° 128° (SE) 11:37:01 145.825
TISAT 1 21 Dec 11:34:56 11:38:51 36° 99° (E) 11:42:46 437.305
BEESAT 2 21 Dec 11:35:06 11:37:33 16° 109° (ESE) 11:40:01 435.950
Oscar 19 21 Dec 11:39:37 11:43:22 21° 67° (ENE) 11:47:08 437.125/150
PCSat 21 Dec 11:41:00 11:42:57 12° 103° (ESE) 11:44:53 145.827
SPROUT 21 Dec 11:41:03 11:45:08 41° 99° (E) 11:49:11 437.525
JUGNU 21 Dec 11:43:07 11:47:12 19° 173° (S) 11:51:17 437.505
50 SAT 21 Dec 11:48:07 11:49:55 13° 293° (WNW) 11:51:43 437.505
ITAMSAT 1 21 Dec 11:59:56 12:01:25 11° 63° (ENE) 12:02:55 435.822/435.867
CUBEBUG 1 21 Dec 12:13:55 12:16:42 17° 292° (WNW) 12:19:29 437.445
BEESAT 3 21 Dec 12:30:31 12:34:35 85° 117° (ESE) 12:38:44 437.485
AIST 2 21 Dec 12:42:54 12:46:52 42° 114° (ESE) 12:50:55 435.215
SWISSCUBE 21 Dec 12:46:09 12:50:29 34° 98° (E) 12:54:47 437.505
ITUPSAT 1 21 Dec 12:47:05 12:51:20 32° 98° (E) 12:55:33 437.325
SRMSAT 21 Dec 12:48:36 12:52:25 18° 171° (S) 12:56:13 437.500
YUBILEINY 21 Dec 12:58:33 13:02:42 14° 281° (W) 13:06:51 435.215
ISS 21 Dec 13:08:04 13:11:06 33° 322° (NW) 13:14:08 145.825
BEESAT 21 Dec 13:10:40 13:15:23 60° 101° (E) 13:20:04 436.000
BEESAT 2 21 Dec 13:11:39 13:15:27 36° 303° (WNW) 13:19:19 435.950
TISAT 1 21 Dec 13:11:55 13:14:20 15° 292° (WNW) 13:16:46 437.305
Oscar 19 21 Dec 13:17:38 13:22:23 39° 261° (W) 13:27:12 437.125/150
SPROUT 21 Dec 13:18:34 13:20:49 14° 293° (WNW) 13:23:05 437.525
PCSat 21 Dec 13:20:17 13:25:40 70° 297° (WNW) 13:31:05 145.827
JUGNU 21 Dec 13:31:19 13:35:35 20° 183° (S) 13:39:51 437.505
AUBIESAT-1 21 Dec 13:32:32 13:36:08 28° 100° (E) 13:39:28 437.475
ITAMSAT 1 21 Dec 13:35:03 13:40:13 76° 257° (WSW) 13:45:24 435.822/435.867
RS-15 21 Dec 13:35:40 13:44:19 26° 319° (NW) 13:53:06 29.354- 29.394
Gurwin Techsat 1B 21 Dec 13:35:47 13:41:01 65° 74° (ENE) 13:46:17 435.225
AO-7 21 Dec 13:45:26 13:51:31 23° 58° (ENE) 13:57:38 29.400- 29.500
STARS 21 Dec 13:53:32 13:56:53 21° 96° (E) 14:00:13 437.465
M-CUBED/EXP-1 PRIME 21 Dec 13:58:28 14:02:42 73° 106° (ESE) 14:06:32 437.505
KKS-1 21 Dec 13:58:44 14:02:53 37° 99° (E) 14:07:02 437.445
AIST 2 21 Dec 14:22:59 14:25:40 16° 310° (NW) 14:28:23 435.215
HORYU 2 21 Dec 14:24:08 14:28:34 77° 76° (ENE) 14:33:04 437.375
SWISSCUBE 21 Dec 14:24:38 14:28:04 20° 292° (WNW) 14:31:30 437.505
ITUPSAT 1 21 Dec 14:25:23 14:28:59 22° 292° (WNW) 14:32:35 437.325
SRMSAT 21 Dec 14:36:38 14:40:56 21° 181° (S) 14:45:14 437.500
BEESAT 21 Dec 14:50:52 14:52:39 12° 295° (WNW) 14:54:26 436.000
GONETS M04 21 Dec 14:59:02 15:04:44 19° 68° (ENE) 15:10:22
AUBIESAT-1 21 Dec 15:07:57 15:10:50 18° 298° (WNW) 15:13:33 437.475
JAS-2 21 Dec 15:12:04 15:18:33 32° 68° (ENE) 15:24:36 435.910
AIST 1 21 Dec 15:18:22 15:21:52 24° 89° (E) 15:25:21
Gurwin Techsat 1B 21 Dec 15:19:17 15:21:21 12° 268° (W) 15:23:26 435.225
JUGNU 21 Dec 15:20:55 15:23:56 14° 193° (SSW) 15:26:57 437.505
STARS 21 Dec 15:29:31 15:33:19 28° 289° (WNW) 15:37:07 437.465
AO-7 21 Dec 15:35:13 15:43:29 71° 255° (WSW) 15:51:51 29.400- 29.500
KKS-1 21 Dec 15:36:21 15:39:11 17° 292° (WNW) 15:42:01 437.445
SRMSAT 21 Dec 16:25:58 16:29:27 16° 191° (S) 16:32:54 437.500
Cubesat XI-IV 21 Dec 16:39:28 16:44:01 30° 69° (ENE) 16:48:34 437.490
MOZHAYETS 4 21 Dec 16:52:04 16:56:42 86° 283° (WNW) 17:01:17
GONETS M04 21 Dec 16:53:41 17:02:25 78° 266° (W) 17:11:04
JAS-2 21 Dec 16:55:56 17:03:17 46° 261° (W) 17:10:08 435.910
AIST 1 21 Dec 16:55:59 16:59:24 22° 283° (WNW) 17:02:49
CUTE-I 21 Dec 17:11:36 17:16:49 61° 74° (ENE) 17:22:03 437.470
PRISM 21 Dec 17:12:36 17:15:24 18° 95° (E) 17:18:11 437.425
RS-15 21 Dec 18:14:26 18:22:00 20° 34° (NNE) 18:29:44 29.354- 29.394
CUBESAT XI-V 21 Dec 18:18:28 18:22:57 52° 100° (E) 18:27:26 437.345
Cubesat XI-IV 21 Dec 18:19:27 18:24:00 29° 263° (W) 18:28:34 437.490
MaSat-1 21 Dec 18:26:39 18:28:49 27° 250° (WSW) 18:31:07 437.345
PRISM 21 Dec 18:47:21 18:50:55 28° 289° (WNW) 18:54:28 437.425
CUSAT 1 21 Dec 18:54:42 19:01:00 25° 72° (ENE) 19:07:34 437.405
CUTE-I 21 Dec 18:54:43 18:57:12 13° 267° (W) 18:59:42 437.470
CANX-2 21 Dec 18:55:01 18:56:50 13° 67° (ENE) 18:58:39 2200.000
GONETS M04 21 Dec 18:55:47 18:57:39 11° 283° (WNW) 18:59:31
STRAND 1 21 Dec 18:57:23 19:02:29 75° 285° (WNW) 19:07:33 437.568
COMPASS 1 21 Dec 19:13:04 19:15:01 13° 67° (ENE) 19:16:59 437.405
SEEDS 21 Dec 19:19:13 19:22:12 19° 69° (ENE) 19:25:12 437.485
CUTE 1.7 + AOD 2 21 Dec 19:23:47 19:27:16 25° 71° (ENE) 19:30:46 437.475
ISS 21 Dec 19:39:07 19:42:15 41° 39° (NE) 19:45:21 145.825
HO-68 21 Dec 19:39:14 19:46:16 62° 71° (ENE) 19:53:20 435.675
DX 1 21 Dec 19:47:01 19:48:05 11° 65° (ENE) 19:49:09 434.975-435.025
DANDE 21 Dec 19:51:21 19:59:13 54° 79° (E) 20:07:40 436.750
SO-50 21 Dec 19:54:18 19:58:39 53° 115° (ESE) 20:03:09 436.795
CUBESAT XI-V 21 Dec 19:57:56 19:59:54 13° 294° (WNW) 20:01:51 437.345
BRITE-PL 21 Dec 20:03:44 20:07:57 86° 77° (ENE) 20:12:05 437.365/2234.400
Oscar 11 21 Dec 20:04:38 20:08:03 23° 70° (ENE) 20:11:28 145.826/435.025
AAUSAT CUBESAT 2 21 Dec 20:09:52 20:13:58 56° 75° (ENE) 20:18:06 437.432
UKube-1 21 Dec 20:14:07 20:17:28 22° 69° (ENE) 20:20:50 .
GOMX 1 21 Dec 20:23:44 20:27:53 79° 258° (WSW) 20:32:03 467.674
RS-15 21 Dec 20:25:33 20:36:53 69° 59° (ENE) 20:48:42 29.354- 29.394
CANX-2 21 Dec 20:28:14 20:32:19 46° 261° (W) 20:36:27 2200.000
CUBEBUG 2 21 Dec 20:33:23 20:37:00 29° 72° (ENE) 20:40:40 437.445
CUSAT 1 21 Dec 20:36:27 20:44:29 69° 265° (W) 20:52:53 437.405
ZACube-1 21 Dec 20:38:31 20:41:51 24° 70° (ENE) 20:45:15 437.345
DOVE 4 21 Dec 20:43:01 20:47:06 64° 259° (W) 20:51:15 437.250
VELOX 1 21 Dec 20:45:36 20:48:23 17° 68° (ENE) 20:51:09 145.980
COMPASS 1 21 Dec 20:46:19 20:50:19 43° 261° (W) 20:54:22 437.405
SEEDS 21 Dec 20:54:06 20:57:47 29° 263° (W) 21:01:30 437.485
DELFI C3 21 Dec 20:54:33 20:58:39 77° 77° (ENE) 21:02:47 145.870
BEESAT 3 21 Dec 20:54:52 20:57:40 17° 51° (NE) 21:00:26 437.485
50 SAT 21 Dec 20:57:00 20:59:33 17° 69° (ENE) 21:02:08 437.505
CINEMA 3 21 Dec 20:58:25 21:02:32 77° 258° (WSW) 21:06:47 145.822/145.860
CUTE 1.7 + AOD 2 21 Dec 20:59:48 21:03:06 22° 265° (W) 21:06:25 437.475
FUNcube-1 21 Dec 21:04:05 21:08:04 48° 74° (ENE) 21:12:10 145.935
UWE-3 21 Dec 21:08:08 21:12:16 67° 76° (ENE) 21:16:30 435.000/436.395/437.385
AIST 2 21 Dec 21:10:41 21:11:55 11° 47° (NE) 21:13:08 435.215
UNISAT 6 21 Dec 21:16:11 21:17:29 11° 92° (E) 21:18:48 437.425
ISS 21 Dec 21:16:48 21:18:31 14° 233° (SW) 21:20:14 145.825
DX 1 21 Dec 21:19:32 21:23:47 56° 259° (W) 21:28:04 434.975-435.025
AISAT 21 Dec 21:27:50 21:32:07 52° 74° (ENE) 21:36:25 437.250
HUMSAT D 21 Dec 21:28:05 21:32:05 53° 75° (ENE) 21:36:09 437.325/437.525
HO-68 21 Dec 21:29:14 21:34:19 21° 266° (W) 21:39:26 435.675
CUBEBUG 1 21 Dec 21:30:14 21:33:16 19° 69° (ENE) 21:36:18 437.445
BEESAT 2 21 Dec 21:35:08 21:39:05 40° 57° (ENE) 21:42:58 435.950
DANDE 21 Dec 21:35:28 21:42:21 32° 271° (W) 21:49:39 436.750
SO-50 21 Dec 21:36:47 21:39:31 16° 312° (NW) 21:42:19 436.795
QB50P1 21 Dec 21:39:07 21:40:18 11° 93° (E) 21:41:28 145.935-145.965
Oscar 11 21 Dec 21:40:32 21:44:04 24° 264° (W) 21:47:38 145.826/435.025
ANTELSAT 21 Dec 21:45:55 21:49:51 26° 96° (E) 21:53:45 437.575/2403.000
UKube-1 21 Dec 21:49:53 21:53:28 25° 263° (W) 21:57:04 .
YUBILEINY 21 Dec 22:01:12 22:06:56 20° 81° (E) 22:12:38 435.215
POPSAT HIP 1 21 Dec 22:05:54 22:09:24 24° 97° (E) 22:12:54 437.405
CUBEBUG 2 21 Dec 22:10:55 22:13:43 18° 266° (W) 22:16:34 437.445
PCSat 21 Dec 22:12:17 22:17:23 40° 59° (ENE) 22:22:26 145.827
ZACube-1 21 Dec 22:14:54 22:18:08 22° 265° (W) 22:21:26 437.345
TIGRISAT 21 Dec 22:19:56 22:24:37 62° 101° (E) 22:29:16 435.000
VELOX 1 21 Dec 22:20:34 22:24:38 36° 261° (W) 22:28:43 145.980
CUSAT 1 21 Dec 22:24:19 22:26:23 11° 279° (W) 22:28:28 437.405
TISAT 1 21 Dec 22:24:57 22:27:44 18° 69° (ENE) 22:30:32 437.305
BUGSAT 1 21 Dec 22:25:11 22:28:50 31° 98° (E) 22:32:30 437.445
ESTCUBE 1 21 Dec 22:27:36 22:32:09 85° 257° (WSW) 22:36:42 437.505/2401.250
50 SAT 21 Dec 22:31:00 22:34:30 29° 263° (W) 22:38:03 437.505
BEESAT 3 21 Dec 22:32:08 22:35:58 37° 247° (WSW) 22:39:44 437.485
SPROUT 21 Dec 22:32:30 22:35:37 20° 70° (ENE) 22:38:45 437.525
DUCHIFAT 1 21 Dec 22:32:38 22:36:48 52° 100° (E) 22:40:57 145.980
RS-15 21 Dec 22:39:13 22:48:23 29° 256° (WSW) 22:57:54 29.354- 29.394
FUNcube-1 21 Dec 22:43:55 22:44:41 10° 268° (W) 22:45:27 145.935
AIST 2 21 Dec 22:46:44 22:51:00 70° 244° (WSW) 22:55:10 435.215
O/OREOS (USA 219) 21 Dec 22:46:55 22:48:31 12° 98° (E) 22:50:07 437.305
QB50P2 21 Dec 22:47:10 22:51:27 83° 102° (ESE) 22:55:44 145.880/145.840
UNISAT 6 21 Dec 22:49:55 22:54:34 59° 285° (WNW) 22:59:12 437.425
POLYITAN 1 21 Dec 22:56:31 23:00:49 76° 284° (WNW) 23:05:06 437.675
NANOSAT C BR1 21 Dec 22:57:29 23:01:44 75° 284° (WNW) 23:05:59 145.865
CUBEBUG 1 21 Dec 23:05:31 23:09:23 31° 262° (W) 23:13:16 437.445
AISAT 21 Dec 23:07:57 23:09:00 11° 267° (W) 23:10:02 437.250
QB50P1 21 Dec 23:12:17 23:16:23 48° 286° (WNW) 23:20:30 145.935-145.965
BEESAT 2 21 Dec 23:14:43 23:16:56 14° 252° (WSW) 23:19:09 435.950
ANTELSAT 21 Dec 23:22:35 23:26:31 27° 290° (WNW) 23:30:26 437.575/2403.000
POPSAT HIP 1 21 Dec 23:41:50 23:45:09 22° 290° (WNW) 23:48:29 437.405
SWISSCUBE 21 Dec 23:49:27 23:53:26 27° 70° (ENE) 23:57:25 437.505
ITUPSAT 1 21 Dec 23:50:40 23:54:32 25° 69° (ENE) 23:58:24 437.325
YUBILEINY 21 Dec 23:54:02 00:02:45 72° 278° (W) 00:11:29 435.215
PCSat 21 Dec 23:56:22 00:00:28 22° 254° (WSW) 00:04:34 145.827
TIGRISAT 21 Dec 23:59:07 00:00:47 12° 295° (WNW) 00:02:26 435.000
TISAT 1 21 Dec 23:59:36 00:03:18 30° 262° (W) 00:07:02 437.305
BUGSAT 1 22 Dec 00:01:34 00:04:03 16° 291° (WNW) 00:06:33 437.445
SPROUT 22 Dec 00:07:52 00:11:30 27° 263° (W) 00:15:10 437.525
DUCHIFAT 1 22 Dec 00:10:57 00:12:09 11° 294° (WNW) 00:13:22 145.980
BEESAT 22 Dec 00:13:29 00:18:01 44° 73° (ENE) 00:22:34 436.000
AUBIESAT-1 22 Dec 00:17:11 00:21:12 27° 65° (ENE) 00:25:17 437.475
O/OREOS (USA 219) 22 Dec 00:23:07 00:27:25 48° 292° (WNW) 00:31:44 437.305
M-CUBED/EXP-1 PRIME 22 Dec 00:43:06 00:47:47 56° 70° (ENE) 00:52:36 437.505
STARS 22 Dec 00:48:59 00:50:37 12° 66° (ENE) 00:52:15 437.465
KKS-1 22 Dec 00:54:02 00:57:24 22° 69° (ENE) 01:00:46 437.445
VERMONT LUNAR 22 Dec 00:59:59 01:03:09 31° 147° (SSE) 01:06:19 437.305
PHONESAT 2.4 22 Dec 01:21:10 01:24:21 29° 146° (SE) 01:27:33 2401.200-2431.200
SWISSCUBE 22 Dec 01:27:10 01:31:10 26° 263° (W) 01:35:10 437.505
ITUPSAT 1 22 Dec 01:28:08 01:32:15 28° 263° (W) 01:36:24 437.325
Oscar 19 22 Dec 01:32:42 01:37:55 81° 284° (WNW) 01:43:06 437.125/150
AUBIESAT-1 22 Dec 01:51:48 01:55:57 30° 259° (W) 02:00:13 437.475
ITAMSAT 1 22 Dec 01:51:57 01:57:00 54° 101° (E) 02:02:03 435.822/435.867
BEESAT 22 Dec 01:53:14 01:56:01 15° 266° (W) 01:58:48 436.000
Gurwin Techsat 1B 22 Dec 01:56:17 02:01:08 35° 98° (E) 02:05:57 435.225
YUBILEINY 22 Dec 01:59:28 02:01:06 11° 297° (WNW) 02:02:44 435.215
HORYU 2 22 Dec 02:20:31 02:23:54 21° 96° (E) 02:27:15 437.375
M-CUBED/EXP-1 PRIME 22 Dec 02:20:34 02:23:01 14° 264° (W) 02:25:30 437.505
STARS 22 Dec 02:22:21 02:26:36 51° 260° (W) 02:30:52 437.465
KKS-1 22 Dec 02:30:05 02:33:51 27° 263° (W) 02:37:38 437.445
VERMONT LUNAR 22 Dec 02:37:56 02:41:22 50° 341° (NNW) 02:44:49 437.305
